H1 CPF 2 NER 2022 10 11 9 284 01 glonass134 H2 1407501 9134 40315 2022 10 11 0 0 0 2022 10 14 23 45 0 900 1 1 0 0 0 1 H9 10 0 59863 0.00000 0 -7608720.520 -16848008.016 17634445.361 10 0 59863 900.00000 0 -5789459.984 -15469363.233 19486852.589 10 0 59863 1800.00000 0 -3703350.374 -14114416.506 20962427.160 10 0 59863 2700.00000 0 -1388369.996 -12836041.109 22032466.470 10 0 59863 3600.00000 0 1107517.981 -11680308.354 22676056.962 10 0 59863 4500.00000 0 3728089.621 -10684599.053 22880489.088 10 0 59863 5400.00000 0 6410934.476 -9876092.563 22641519.432 10 0 59863 6300.00000 0 9089796.941 -9270696.794 21963473.862 10 0 59863 7200.00000 0 11697090.015 -8872464.765 20859188.164 10 0 59863 8100.00000 0 14166479.194 -8673523.383 19349785.399 10 0 59863 9000.00000 0 16435430.388 -8654519.062 17464292.038 10 0 59863 9900.00000 0 18447616.265 -8785563.152 15239098.120 10 0 59863 10800.00000 0 20155080.467 -9027639.000 12717269.752 10 0 59863 11700.00000 0 21520068.359 -9334412.513 9947725.541 10 0 59863 12600.00000 0 22516446.177 -9654370.445 6984291.785 10 0 59863 13500.00000 0 23130647.465 -9933195.892 3884654.208 10 0 59863 14400.00000 0 23362105.341 -10116279.558 709226.792 10 0 59863 15300.00000 0 23223151.085 -10151258.788 -2480039.317 10 0 59863 16200.00000 0 22738382.495 -9990474.515 -5620882.154 10 0 59863 17100.00000 0 21943528.538 -9593239.286 -8651964.681 10 0 59863 18000.00000 0 20883858.765 -8927817.508 -11514093.525 10 0 59863 18900.00000 0 19612205.935 -7973031.340 -14151394.697 10 0 59863 19800.00000 0 18186687.058 -6719421.955 -16512421.316 10 0 59863 20700.00000 0 16668221.104 -5169915.367 -18551169.932 10 0 59863 21600.00000 0 15117950.144 -3339963.562 -20227984.508 10 0 59863 22500.00000 0 13594674.370 -1257154.496 -21510329.870 10 0 59863 23400.00000 0 12152410.348 1039692.523 -22373419.542 10 0 59863 24300.00000 0 10838175.789 3501907.574 -22800686.430 10 0 59863 25200.00000 0 9690093.736 6072768.397 -22784088.286 10 0 59863 26100.00000 0 8735894.861 8689640.105 -22324243.468 10 0 59863 27000.00000 0 7991878.940 11286366.305 -21430396.075 10 0 59863 27900.00000 0 7462376.778 13795811.565 -20120212.868 10 0 59863 28800.00000 0 7139732.482 16152449.284 -18419417.619 10 0 59863 29700.00000 0 7004803.940 18294887.776 -16361271.548 10 0 59863 30600.00000 0 7027957.712 20168230.583 -13985911.162 10 0 59863 31500.00000 0 7170514.079 21726174.207 -11339557.402 10 0 59863 32400.00000 0 7386579.507 22932757.991 -8473612.074 10 0 59863 33300.00000 0 7625188.003 23763695.466 -5443659.387 10 0 59863 34200.00000 0 7832660.522 24207233.983 -2308392.031 10 0 59863 35100.00000 0 7955082.880 24264509.078 871517.779 10 0 59863 36000.00000 0 7940798.216 23949380.772 4034581.060 10 0 59863 36900.00000 0 7742809.763 23287760.234 7119666.957 10 0 59863 37800.00000 0 7320993.731 22316455.989 10067168.234 10 0 59863 38700.00000 0 6644030.034 21081588.279 12820136.179 10 0 59863 39600.00000 0 5690970.409 19636637.643 15325364.392 10 0 59863 40500.00000 0 4452378.206 18040208.429 17534402.026 10 0 59863 41400.00000 0 2930991.649 16353599.345 19404478.418 10 0 59863 42300.00000 0 1141881.727 14638280.922 20899322.399 10 0 59863 43200.00000 0 -887903.761 12953383.440 21989861.522 10 0 59863 44100.00000 0 -3120197.596 11353298.482 22654788.260 10 0 59863 45000.00000 0 -5507039.117 9885492.878 22880982.295 10 0 59863 45900.00000 0 -7992416.825 8588625.327 22663780.304 10 0 59863 46800.00000 0 -10514358.329 7491043.944 22007087.016 10 0 59863 47700.00000 0 -13007283.645 6609727.749 20923323.866 10 0 59863 48600.00000 0 -15404526.415 5949717.109 19433214.331 10 0 59863 49500.00000 0 -17640919.944 5504058.121 17565407.885 10 0 59863 50400.00000 0 -19655341.145 5254264.734 15355947.645 10 0 59863 51300.00000 0 -21393106.404 5171280.544 12847589.888 10 0 59863 52200.00000 0 -22808118.515 5216900.982 10088986.857 10 0 59863 53100.00000 0 -23864673.419 5345596.655 7133747.522 10 0 59863 54000.00000 0 -24538849.215 5506660.894 4039393.956 10 0 59863 54900.00000 0 -24819417.182 5646590.036 866233.710 10 0 59863 55800.00000 0 -24708234.687 5711594.281 -2323828.911 10 0 59863 56700.00000 0 -24220102.085 5650130.661 -5468518.077 10 0 59863 57600.00000 0 -23382088.882 5415348.217 -8506422.356 10 0 59863 58500.00000 0 -22232357.564 4967338.951 -11378214.912 10 0 59863 59400.00000 0 -20818535.416 4275096.394 -14027831.937 10 0 59863 60300.00000 0 -19195704.302 3318096.292 -16403584.266 10 0 59863 61200.00000 0 -17424094.968 2087430.559 -18459178.674 10 0 59863 62100.00000 0 -15566584.897 586445.077 -20154627.789 10 0 59863 63000.00000 0 -13686106.877 -1169146.370 -21457030.297 10 0 59863 63900.00000 0 -11843078.717 -3151676.976 -22341206.213 10 0 59863 64800.00000 0 -10092962.965 -5322452.887 -22790175.493 10 0 59863 65700.00000 0 -8484059.077 -7633150.763 -22795471.753 10 0 59863 66600.00000 0 -7055620.012 -10027627.467 -22357286.459 10 0 59863 67500.00000 0 -5836370.629 -12444065.430 -21484442.442 10 0 59863 68400.00000 0 -4843487.737 -14817363.439 -20194199.033 10 0 59863 69300.00000 0 -4082081.895 -17081672.764 -18511894.272 10 0 59863 70200.00000 0 -3545199.556 -19172973.045 -16470432.726 10 0 59863 71100.00000 0 -3214342.407 -21031581.248 -14109630.072 10 0 59863 72000.00000 0 -3060479.208 -22604490.185 -11475428.261 10 0 59863 72900.00000 0 -3045505.061 -23847440.712 -8618997.118 10 0 59863 73800.00000 0 -3124084.783 -24726643.107 -5595740.115 10 0 59863 74700.00000 0 -3245801.497 -25220077.789 -2464223.680 10 0 59863 75600.00000 0 -3357519.322 -25318323.224 714949.560 10 0 59863 76500.00000 0 -3405860.555 -25024878.320 3880302.438 10 0 59863 77400.00000 0 -3339693.519 -24355967.374 6970658.098 10 0 59863 78300.00000 0 -3112527.017 -23339836.849 9926306.514 10 0 59863 79200.00000 0 -2684711.546 -22015573.804 12690141.445 10 0 59863 80100.00000 0 -2025355.458 -20431495.239 15208747.244 10 0 59863 81000.00000 0 -1113876.054 -18643174.857 17433416.047 10 0 59863 81900.00000 0 58879.557 -16711188.275 19321077.188 10 0 59863 82800.00000 0 1489991.424 -14698669.130 20835122.068 10 0 59863 83700.00000 0 3164329.885 -12668776.019 21946109.622 10 0 59863 84600.00000 0 5054932.638 -10682173.897 22632339.337 10 0 59863 85500.00000 0 7123882.658 -8794633.184 22880280.834 10 0 59864 0.00000 0 9323653.193 -7054845.348 22684851.356 10 0 59864 900.00000 0 11598868.291 -5502544.209 22049534.618 10 0 59864 1800.00000 0 13888405.584 -4167013.381 20986337.580 10 0 59864 2700.00000 0 16127760.481 -3066039.243 19515583.720 10 0 59864 3600.00000 0 18251572.448 -2205356.384 17665544.809 10 0 59864 4500.00000 0 20196210.482 -1578608.871 15471916.008 10 0 59864 5400.00000 0 21902310.084 -1167830.367 12977142.391 10 0 59864 6300.00000 0 23317155.253 -944424.005 10229608.089 10 0 59864 7200.00000 0 24396804.475 -870601.636 7282702.620 10 0 59864 8100.00000 0 25107869.791 -901221.947 4193781.896 10 0 59864 9000.00000 0 25428872.084 -985949.407 1023044.186 10 0 59864 9900.00000 0 25351113.456 -1071641.584 -2167656.157 10 0 59864 10800.00000 0 24879028.121 -1104861.919 -5316032.720 10 0 59864 11700.00000 0 24029995.653 -1034409.112 -8360602.998 10 0 59864 12600.00000 0 22833623.850 -813753.222 -11241909.936 10 0 59864 13500.00000 0 21330531.490 -403272.420 -13903702.977 10 0 59864 14400.00000 0 19570683.076 227807.011 -16294053.477 10 0 59864 15300.00000 0 17611347.079 1099851.798 -18366380.932 10 0 59864 16200.00000 0 15514765.298 2221711.548 -20080368.805 10 0 59864 17100.00000 0 13345633.027 3590105.373 -21402751.481 10 0 59864 18000.00000 0 11168497.490 5189531.482 -22307956.953 10 0 59864 18900.00000 0 9045184.720 6992703.461 -22778593.350 10 0 59864 19800.00000 0 7032363.132 8961494.321 -22805770.896 10 0 59864 20700.00000 0 5179345.513 11048347.770 -22389254.480 10 0 59864 21600.00000 0 3526220.185 13198096.685 -21537445.544 10 0 59864 22500.00000 0 2102387.579 15350111.813 -20267195.404 10 0 59864 23400.00000 0 925560.892 17440690.242 -18603455.325 10 0 59864 24300.00000 0 1269.591 19405583.672 -16578771.704 10 0 59864 25200.00000 0 -677116.716 21182561.152 -14232637.450 10 0 59864 26100.00000 0 -1127848.204 22713899.946 -11610713.177 10 0 59864 27000.00000 0 -1379764.222 23948701.746 -8763934.028 10 0 59864 27900.00000 0 -1470817.911 24844938.990 -5747519.740 10 0 59864 28800.00000 0 -1446219.935 25371147.555 -2619907.261 10 0 59864 29700.00000 0 -1356280.657 25507696.945 558373.735 10 0 59864 30600.00000 0 -1254042.127 25247586.660 3725861.304 10 0 59864 31500.00000 0 -1192799.485 24596736.892 6821335.955 10 0 59864 32400.00000 0 -1223615.637 23573762.534 9784988.102 10 0 59864 33300.00000 0 -1392932.998 22209240.448 12559557.005 10 0 59864 34200.00000 0 -1740381.856 20544500.533 15091420.545 10 0 59864 35100.00000 0 -2296876.785 18629990.377 17331616.326 10 0 59864 36000.00000 0 -3083080.693 16523280.425 19236775.848 10 0 59864 36900.00000 0 -4108301.099 14286791.097 20769954.926 10 0 59864 37800.00000 0 -5369865.759 11985334.502 21901345.364 10 0 59864 38700.00000 0 -6853005.339 9683570.869 22608854.777 10 0 59864 39600.00000 0 -8531250.222 7443483.560 22878543.436 10 0 59864 40500.00000 0 -10367327.637 5321975.893 22704909.336 10 0 59864 41400.00000 0 -12314524.751 3368688.437 22091015.029 10 0 59864 42300.00000 0 -14318463.940 1624126.955 21048452.254 10 0 59864 43200.00000 0 -16319219.094 118178.798 19597143.210 10 0 59864 44100.00000 0 -18253687.099 -1130919.995 17764980.137 10 0 59864 45000.00000 0 -20058117.086 -2117122.833 15587307.915 10 0 59864 45900.00000 0 -21670692.623 -2846592.423 13106257.633 10 0 59864 46800.00000 0 -23034058.668 -3337200.379 10369942.173 10 0 59864 47700.00000 0 -24097686.424 -3617526.734 7431528.202 10 0 59864 48600.00000 0 -24819975.172 -3725401.025 4348201.923 10 0 59864 49500.00000 0 -25170000.613 -3706046.684 1180048.740 10 0 59864 50400.00000 0 -25128833.750 -3609907.912 -2011130.489 10 0 59864 51300.00000 0 -24690372.538 -3490252.554 -5163042.188 10 0 59864 52200.00000 0 -23861649.351 -3400654.580 -8214136.032 10 0 59864 53100.00000 0 -22662600.033 -3392465.402 -11104827.782 10 0 59864 54000.00000 0 -21125303.684 -3512383.922 -13778682.889 10 0 59864 54900.00000 0 -19292725.394 -3800230.990 -16183535.667 10 0 59864 55800.00000 0 -17217015.712 -4287024.860 -18272520.377 10 0 59864 56700.00000 0 -14957439.680 -4993441.008 -20004992.894 10 0 59864 57600.00000 0 -12578023.991 -5928722.688 -21347324.345 10 0 59864 58500.00000 0 -10145022.549 -7090088.799 -22273551.179 10 0 59864 59400.00000 0 -7724307.870 -8462664.025 -22765869.593 10 0 59864 60300.00000 0 -5378798.145 -10019933.682 -22814965.768 10 0 59864 61200.00000 0 -3166027.674 -11724703.174 -22420176.858 10 0 59864 62100.00000 0 -1135961.328 -13530520.755 -21589481.345 10 0 59864 63000.00000 0 670857.242 -15383502.830 -20339320.600 10 0 59864 63900.00000 0 2224748.533 -17224484.406 -18694256.923 10 0 59864 64800.00000 0 3507873.866 -18991404.081 -16686476.163 10 0 59864 65700.00000 0 4514708.187 -20621823.642 -14355145.943 10 0 59864 66600.00000 0 5251992.531 -22055477.085 -11745642.962 10 0 59864 67500.00000 0 5738171.366 -23236743.249 -8908665.071 10 0 59864 68400.00000 0 6002341.311 -24116939.751 -5899245.695 10 0 59864 69300.00000 0 6082757.701 -24656343.671 -2775689.775 10 0 59864 70200.00000 0 6024963.499 -24825856.065 401548.413 10 0 59864 71100.00000 0 5879620.249 -24608242.230 3571024.480 10 0 59864 72000.00000 0 5700132.684 -23998897.220 6671478.518 10 0 59864 72900.00000 0 5540166.706 -23006105.666 9643003.477 10 0 59864 73800.00000 0 5451164.553 -21650785.586 12428186.063 10 0 59864 74700.00000 0 5479960.719 -19965726.889 14973199.478 10 0 59864 75600.00000 0 5666597.994 -17994355.748 17228828.397 10 0 59864 76500.00000 0 6042434.624 -15789075.087 19151407.891 10 0 59864 77400.00000 0 6628621.770 -13409248.636 20703659.346 10 0 59864 78300.00000 0 7435015.377 -10918910.305 21855408.355 10 0 59864 79200.00000 0 8459569.016 -8384291.793 22584171.302 10 0 59864 80100.00000 0 9688234.737 -5871268.918 22875599.481 10 0 59864 81000.00000 0 11095378.354 -3442830.656 22723771.796 10 0 59864 81900.00000 0 12644694.542 -1156674.293 22131329.458 10 0 59864 82800.00000 0 14290586.421 936974.441 21109448.609 10 0 59864 83700.00000 0 15979954.911 2797226.168 19677649.573 10 0 59864 84600.00000 0 17654325.665 4393999.934 17863444.226 10 0 59864 85500.00000 0 19252226.580 5709040.489 15701826.108 10 0 59865 0.00000 0 20711717.481 6736437.345 13234611.250 10 0 59865 900.00000 0 21972967.022 7482623.291 10509639.256 10 0 59865 1800.00000 0 22980766.134 7965850.089 7579852.285 10 0 59865 2700.00000 0 23686873.607 8215164.586 4502264.683 10 0 59865 3600.00000 0 24052091.091 8268926.764 1336846.565 10 0 59865 4500.00000 0 24047978.479 8172933.358 -1854657.348 10 0 59865 5400.00000 0 23658134.744 7978227.414 -5009949.106 10 0 59865 6300.00000 0 22878987.879 7738688.294 -8067413.411 10 0 59865 7200.00000 0 21720058.816 7508506.475 -10967341.657 10 0 59865 8100.00000 0 20203686.984 7339652.763 -13653117.996 10 0 59865 9000.00000 0 18364228.577 7279451.754 -16072342.225 10 0 59865 9900.00000 0 16246761.588 7368364.789 -18177865.672 10 0 59865 10800.00000 0 13905352.880 7638078.248 -19928718.708 10 0 59865 11700.00000 0 11400961.279 8109979.489 -21290911.065 10 0 59865 12600.00000 0 8799066.077 8794085.544 -22238089.285 10 0 59865 13500.00000 0 6167121.510 9688469.891 -22752039.042 10 0 59865 14400.00000 0 3571944.521 10779210.948 -22823023.590 10 0 59865 15300.00000 0 1077145.371 12040863.460 -22449953.162 10 0 59865 16200.00000 0 -1259292.086 13437431.701 -21640383.679 10 0 59865 17100.00000 0 -3387180.693 14923802.305 -20410346.560 10 0 59865 18000.00000 0 -5265962.115 16447575.269 -18784014.636 10 0 59865 18900.00000 0 -6866126.945 17951215.377 -16793212.244 10 0 59865 19800.00000 0 -8170166.549 19374433.260 -14476780.281 10 0 59865 20700.00000 0 -9173020.069 20656696.082 -11879809.662 10 0 59865 21600.00000 0 -9882001.275 21739762.994 -9052758.708 10 0 59865 22500.00000 0 -10316211.415 22570139.862 -6050471.956 10 0 59865 23400.00000 0 -10505465.352 23101351.479 -2931119.525 10 0 59865 24300.00000 0 -10488778.232 23295937.407 244922.717 10 0 59865 25200.00000 0 -10312477.682 23127089.212 3416231.076 10 0 59865 26100.00000 0 -10028021.667 22579861.810 6521508.421 10 0 59865 27000.00000 0 -9689613.854 21651909.249 9500753.421 10 0 59865 27900.00000 0 -9351716.340 20353714.720 12296403.362 10 0 59865 28800.00000 0 -9066563.462 18708305.257 14854429.775 10 0 59865 29700.00000 0 -8881780.181 16750462.488 17125367.254 10 0 59865 30600.00000 0 -8838204.098 14525461.131 19065257.072 10 0 59865 31500.00000 0 -8968001.796 12087386.137 20636488.570 10 0 59865 32400.00000 0 -9293158.250 9497096.255 21808523.191 10 0 59865 33300.00000 0 -9824402.959 6819916.194 22558487.815 10 0 59865 34200.00000 0 -10560618.756 4123150.770 22871626.077 10 0 59865 35100.00000 0 -11488759.713 1473521.762 22741598.650 10 0 59865 36000.00000 0 -12584283.797 -1065368.190 22170625.763 10 0 59865 36900.00000 0 -13812084.750 -3435440.873 21169467.781 10 0 59865 37800.00000 0 -15127886.945 -5586318.012 19757242.391 10 0 59865 38700.00000 0 -16480047.434 -7477176.860 17961079.789 10 0 59865 39600.00000 0 -17811691.849 -9078208.208 15815620.299 10 0 59865 40500.00000 0 -19063096.162 -10371615.241 13362362.048 10 0 59865 41400.00000 0 -20174215.032 -11352110.444 10648869.451 10 0 59865 42300.00000 0 -21087250.279 -12026888.574 7727856.595 10 0 59865 43200.00000 0 -21749150.340 -12415075.941 4656162.577 10 0 59865 44100.00000 0 -22113933.609 -12546678.690 1493638.694 10 0 59865 45000.00000 0 -22144735.316 -12461074.435 -1698030.071 10 0 59865 45900.00000 0 -21815488.959 -12205111.738 -4856544.978 10 0 59865 46800.00000 0 -21112168.713 -11830899.175 -7920229.265 10 0 59865 47700.00000 0 -20033538.084 -11393379.568 -10829253.331 10 0 59865 48600.00000 0 -18591371.472 -10947794.445 -13526823.214 10 0 59865 49500.00000 0 -16810138.193 -10547148.708 -15960307.092 10 0 59865 50400.00000 0 -14726161.949 -10239785.267 -18082275.927 10 0 59865 51300.00000 0 -12386291.410 -10067174.424 -19851436.697 10 0 59865 52200.00000 0 -9846138.520 -10062013.058 -21233439.339 10 0 59865 53100.00000 0 -7167959.631 -10246714.850 -22201541.502 10 0 59865 54000.00000 0 -4418269.329 -10632355.440 -22737118.739 10 0 59865 54900.00000 0 -1665287.670 -11218116.553 -22830011.199 10 0 59865 55800.00000 0 1023671.910 -11991251.451 -22478701.444 10 0 59865 56700.00000 0 3584765.104 -12927571.718 -21690321.634 10 0 59865 57600.00000 0 5960023.598 -13992433.300 -20480491.615 10 0 59865 58500.00000 0 8099507.309 -15142178.729 -18872992.821 10 0 59865 59400.00000 0 9963114.465 -16325973.484 -16899285.870 10 0 59865 60300.00000 0 11521976.752 -17487958.345 -14597882.519 10 0 59865 61200.00000 0 12759384.242 -18569626.657 -12013585.289 10 0 59865 62100.00000 0 13671204.788 -19512326.606 -9196610.210 10 0 59865 63000.00000 0 14265783.495 -20259783.786 -6201610.049 10 0 59865 63900.00000 0 14563329.308 -20760538.887 -3086617.146 10 0 59865 64800.00000 0 14594816.927 -20970199.292 88074.004 10 0 59865 65700.00000 0 14400451.908 -20853411.281 3261063.326 10 0 59865 66600.00000 0 14027764.515 -20385471.346 6371019.266 10 0 59865 67500.00000 0 13529412.876 -19553510.052 9357848.841 10 0 59865 68400.00000 0 12960787.514 -18357199.519 12163842.297 10 0 59865 69300.00000 0 12377517.239 -16808955.072 14734771.595 10 0 59865 70200.00000 0 11832980.077 -14933622.177 17020923.037 10 0 59865 71100.00000 0 11375922.619 -12767660.611 18978045.548 10 0 59865 72000.00000 0 11048286.589 -10357858.250 20568197.533 10 0 59865 72900.00000 0 10883333.017 -7759625.757 21760477.064 10 0 59865 73800.00000 0 10904142.366 -5034940.476 22531621.946 10 0 59865 74700.00000 0 11122553.768 -2250022.282 22866468.275 10 0 59865 75600.00000 0 11538588.767 527164.910 22758258.307 10 0 59865 76500.00000 0 12140385.304 3229484.738 22208790.836 10 0 59865 77400.00000 0 12904646.779 5793168.248 21228409.741 10 0 59865 78300.00000 0 13797589.798 8160217.974 19835829.153 10 0 59865 79200.00000 0 14776353.283 10280576.992 18057796.449 10 0 59865 80100.00000 0 15790812.093 12113972.622 15928597.410 10 0 59865 81000.00000 0 16785720.696 13631357.363 13489410.965 10 0 59865 81900.00000 0 17703097.847 14815885.862 10787524.174 10 0 59865 82800.00000 0 18484752.086 15663385.780 7875421.329 10 0 59865 83700.00000 0 19074840.947 16182301.658 4809764.150 10 0 59865 84600.00000 0 19422354.442 16393113.290 1650282.799 10 0 59865 85500.00000 0 19483415.794 16327252.711 -1541399.921 10 0 59866 0.00000 0 19223299.669 16025565.805 -4702986.729 10 0 59866 900.00000 0 18618079.700 15536384.298 -7772742.511 10 0 59866 1800.00000 0 17655833.491 14913291.679 -10690718.858 10 0 59866 2700.00000 0 16337351.555 14212679.144 -13399946.049 10 0 59866 3600.00000 0 14676318.899 13491197.719 -15847562.844 10 0 59866 4500.00000 0 12698960.596 12803216.644 -17985861.851 10 0 59866 5400.00000 0 10443166.038 12198397.731 -19773228.510 10 0 59866 6300.00000 0 7957128.973 11719489.915 -21174954.642 10 0 59866 7200.00000 0 5297561.263 11400438.245 -22163910.539 10 0 59866 8100.00000 0 2527556.162 11264887.433 -22721062.992 10 0 59866 9000.00000 0 -285808.581 11325142.666 -22835830.192 10 0 59866 9900.00000 0 -3074026.855 11581630.409 -22506267.923 10 0 59866 10800.00000 0 -5769772.716 12022880.298 -21739085.119 10 0 59866 11700.00000 0 -8309452.922 12626027.020 -20549490.197 10 0 59866 12600.00000 0 -10635598.018 13357809.048 -18960872.892 10 0 59866 13500.00000 0 -12698994.074 14176020.354 -17004329.339 10 0 59866 14400.00000 0 -14460468.509 15031352.473 -14718040.960 10 0 59866 15300.00000 0 -15892258.168 15869548.285 -12146520.299 10 0 59866 16200.00000 0 -16978905.600 16633776.319 -9339739.170 10 0 59866 17100.00000 0 -17717649.171 17267125.608 -6352156.391 10 0 59866 18000.00000 0 -18118293.539 17715116.547 -3241664.106 10 0 59866 18900.00000 0 -18202568.574 17928122.980 -68472.853 10 0 59866 19800.00000 0 -18003005.599 17863604.683 3106043.638 10 0 59866 20700.00000 0 -17561379.521 17488057.578 6220522.240 10 0 59866 21600.00000 0 -16926782.995 16778600.817 9214781.243 10 0 59866 22500.00000 0 -16153413.506 15724134.836 12030966.831 10 0 59866 23400.00000 0 -15298165.748 14326022.190 14614654.376 10 0 59866 24300.00000 0 -14418129.360 12598262.368 16915884.811 10 0 59866 25200.00000 0 -13568095.719 10567152.343 18890117.512 10 0 59866 26100.00000 0 -12798177.035 8270445.484 20499082.552 10 0 59866 27000.00000 0 -12151636.337 5756041.705 21711516.961 10 0 59866 27900.00000 0 -11663018.434 3080260.711 22503771.478 10 0 59866 28800.00000 0 -11356659.825 305767.272 22860276.276 10 0 59866 29700.00000 0 -11245640.203 -2500768.256 22773856.370 10 0 59866 30600.00000 0 -11331220.409 -5271179.882 22245889.814 10 0 59866 31500.00000 0 -11602791.836 -7938384.473 21286304.190 10 0 59866 32400.00000 0 -12038341.321 -10438923.555 19913409.722 10 0 59866 33300.00000 0 -12605414.149 -12715363.900 18153570.100 10 0 59866 34200.00000 0 -13262536.835 -14718457.259 16040715.173 10 0 59866 35100.00000 0 -13961041.661 -16408968.941 13615702.821 10 0 59866 36000.00000 0 -14647217.450 -17759098.003 10925540.459 10 0 59866 36900.00000 0 -15264696.478 -18753428.302 8022479.961 10 0 59866 37800.00000 0 -15756976.507 -19389369.223 4963002.765 10 0 59866 38700.00000 0 -16069970.298 -19677066.344 1806714.796 10 0 59866 39600.00000 0 -16154472.944 -19638784.953 -1384826.577 10 0 59866 40500.00000 0 -15968440.245 -19307792.180 -4549329.431 10 0 59866 41400.00000 0 -15478978.967 -18726785.348 -7625002.537 10 0 59866 42300.00000 0 -14663962.050 -17945934.081 -10551782.629 10 0 59866 43200.00000 0 -13513197.934 -17020620.623 -13272527.530 10 0 59866 44100.00000 0 -12029102.523 -16008976.055 -15734149.739 10 0 59866 45000.00000 0 -10226844.017 -14969318.837 -17888666.433 10 0 59866 45900.00000 0 -8133953.742 -13957606.134 -19694144.093 10 0 59866 46800.00000 0 -5789419.203 -13025007.358 -21115518.583 10 0 59866 47700.00000 0 -3242297.924 -12215703.610 -22125274.476 10 0 59866 48600.00000 0 -549910.917 -11565006.307 -22703970.900 10 0 59866 49500.00000 0 2224307.743 -11097874.038 -22840604.619 10 0 59866 50400.00000 0 5013214.505 -10827889.084 -22532804.637 10 0 59866 51300.00000 0 7748512.309 -10756735.050 -21786856.184 10 0 59866 52200.00000 0 10363352.385 -10874195.478 -20617555.335 10 0 59866 53100.00000 0 12794873.901 -11158671.207 -19047898.825 10 0 59866 54000.00000 0 14986576.912 -11578192.364 -17108616.664 10 0 59866 54900.00000 0 16890431.507 -12091880.308 -14837557.942 10 0 59866 55800.00000 0 18468637.451 -12651796.282 -12278942.898 10 0 59866 56700.00000 0 19694963.623 -13205097.742 -9482496.478 10 0 59866 57600.00000 0 20555614.160 -13696410.940 -6502480.588 10 0 59866 58500.00000 0 21049587.885 -14070319.775 -3396643.988 10 0 59866 59400.00000 0 21188518.614 -14273866.546 -225109.891 10 0 59866 60300.00000 0 20996005.217 -14258960.086 2950777.732 10 0 59866 61200.00000 0 20506461.129 -13984590.966 6069627.542 10 0 59866 62100.00000 0 19763532.526 -13418761.605 9071172.300 10 0 59866 63000.00000 0 18818151.830 -12540050.990 11897417.060 10 0 59866 63900.00000 0 17726307.794 -11338748.861 14493743.199 10 0 59866 64800.00000 0 16546624.808 -9817511.699 16809948.485 10 0 59866 65700.00000 0 15337851.544 -7991512.394 18801204.554 10 0 59866 66600.00000 0 14156362.706 -5888075.996 20428914.541 10 0 59866 67500.00000 0 13053776.974 -3545814.743 21661455.438 10 0 59866 68400.00000 0 12074789.543 -1013295.796 22474791.530 10 0 59866 69300.00000 0 11255309.119 1652705.710 22852947.306 10 0 59866 70200.00000 0 10620976.930 4389298.845 22788330.438 10 0 59866 71100.00000 0 10186129.967 7129830.425 22281897.788 10 0 59866 72000.00000 0 9953252.738 9806404.772 21343159.883 10 0 59866 72900.00000 0 9912941.817 12352467.273 19990021.996 10 0 59866 73800.00000 0 10044386.384 14705345.832 18248462.813 10 0 59866 74700.00000 0 10316346.406 16808645.087 16152054.700 10 0 59866 75600.00000 0 10688589.039 18614393.598 13741332.705 10 0 59866 76500.00000 0 11113724.115 20084853.654 11063022.619 10 0 59866 77400.00000 0 11539362.067 21193916.659 8169141.718 10 0 59866 78300.00000 0 11910503.229 21928024.168 5115988.802 10 0 59866 79200.00000 0 12172056.693 22286574.364 1963043.059 10 0 59866 80100.00000 0 12271380.641 22281795.586 -1228206.166 10 0 59866 81000.00000 0 12160734.376 21938091.503 -4395474.653 10 0 59866 81900.00000 0 11799535.594 21290885.396 -7476918.209 10 0 59866 82800.00000 0 11156324.508 20385012.935 -10412360.895 10 0 59866 83700.00000 0 10210348.960 19272732.557 -13144490.390 10 0 59866 84600.00000 0 8952701.085 18011439.258 -15619995.057 10 0 59866 85500.00000 0 7386955.687 16661180.438 -17790618.562 99